Weather Roundup
Issued by NWS Chicago, IL

Home | Current Version | Previous Version | Graphics & Text | Print | Product List | Glossary On
Versions: 1 2 3 4 5 6 7 8 9 10 11 12 13 14 15 16 17 18 19 20 21 22 23 24 25 26 27 28 29 30 31 32 33 34 35 36 37 38 39 40 41 42 43 44 45 46 47 48 49 50
616
NZUS59 KLOT 271308
HRRLOT

CHICAGO AREA WEATHER ROUNDUP
NATIONAL WEATHER SERVICE CHICAGO/ROMEOVILLE IL
700 AM CST MON FEB 27 2017

NOTE: "FAIR" INDICATES FEW OR NO CLOUDS BELOW 12,000 FEET WITH NO
SIGNIFICANT WEATHER AND/OR OBSTRUCTIONS TO VISIBILITY.

* THESE STATIONS ARE NOT UNDER NWS QUALITY CONTROL. THEY ALSO MAY NOT
  REPORT WEATHER SUCH AS PRECIPITATION OR FOG.

ILZ005-006-012>014-019>023-271400-
NORTHEAST ILLINOIS

CITY           SKY/WX    TMP DP  RH WIND       PRES   REMARKS
OHARE          PTCLDY    29  23  78 S3        30.13R
MIDWAY         MOCLDY    35  26  69 S6        30.14R WCI  30
AURORA         PTCLDY    27  23  85 SE3       30.13R
LANSING*       PTCLDY    29  27  92 S5        30.16S WCI  24
JOLIET*        CLEAR     30  28  94 CALM      30.15R
WAUKEGAN       CLEAR     25  24  96 CALM      30.13R
DUPAGE AIRPORT PTCLDY    27  22  81 CALM      30.12R
WHEELING       CLEAR     26  22  84 CALM      30.15R
KANKAKEE*      CLEAR     25  23  90 CALM      30.17R
MORRIS*        CLEAR     28  26  90 CALM      30.14R
LEWIS AIRPORT* CLEAR     29  28  97 S7        30.14R WCI  22
NORTHERLY ISL    N/A     35  27  73 S5          N/A  WCI  31
$$

WIZ051-052-058>065-066-070>072-271400-
SOUTHEAST WISCONSIN

CITY           SKY/WX    TMP DP  RH WIND       PRES   REMARKS
MILWAUKEE      PTCLDY    24  20  84 CALM      30.13R
KENOSHA*       CLEAR     27  24  89 CALM      30.13R
RACINE*        CLEAR     25  22  88 CALM      30.14R
WAUKESHA       CLEAR     21  19  93 CALM      30.12R
WEST BEND      CLEAR     23  23 100 S3        30.10R
$$

INZ001>003-010>013-019-020-271400-
NORTHWEST INDIANA

CITY           SKY/WX    TMP DP  RH WIND       PRES   REMARKS
GARY*          MOCLDY    32  27  80 CALM      30.16R
MICHIGAN CITY* NOT AVBL
RENSSELAER*    NOT AVBL
VALPARAISO     CLEAR     27  23  85 N3        30.17R
$$

LMZ740>746-271400-
SOUTHERN LAKE MICHIGAN

STATION/POSITION TIME  SKY/WX   TEMP WIND        PRES    VSBY
                                AIR  DIR/SP/G
                 (UTC)          (F)  (DEG/KT/KT) (MB)    (MI)
HARRISON CRIB    1240            37  200/  7/  8   N/A
BURNHAM HARBOR   1300            35  200/  5       N/A
CALUMET HARBOR   1248            35  170/  5/  6 1020.2R
BURNS HARBOR     1240            33  190/  6/  9 1021.3R
MICHIGAN CITY    1240            35  170/  7/  8   N/A
$$

ABBREVIATIONS USED IN REMARKS
   TC - TEMPERATURE IN CELSIUS
  WCI - WIND CHILL INDEX
   HX - HEAT INDEX
  VSB - VISIBILITY
$$




USA.gov is the U.S. government's official web portal to all federal, state and local government web resources and services.